Вернуться в каталог

FENGYUN 1C DEB

АктивенSSO
NORAD 32127·DEBRIS·🇨🇳 China

Запущен May 10, 1999 с Taiyuan Satellite Launch Center

Loading…

Ближайшие Пролёты (ближайшие 24 часа)

TLE

УстаревающийSource: Space-Track

Эпоха: Sep 10, 2026, 02:24 UTC

1 32127U 99025CRV 26253.10005042  .00001276  00000-0  13325-2 0  9992
2 32127  99.2638 199.0325 0283322  16.5007 344.5129 13.60935147641101

Отслеживайте FENGYUN 1C DEB в реальном времени с AllMySat

Download on the App Store